{"data":{"norad_id":56800,"intl_designator":"2023-078AK","name":"STARLINK-6036","alt_names":[],"object_type":"PAYLOAD","status":"ACTIVE","operator":null,"country":"US","launch_date":"2023-05-31","launch_site_code":"AFWTR","launch_vehicle":null,"mission":null,"orbit_class":"UNKNOWN","rcs_meters":null,"size_class":null,"mass_kg":null,"dimensions":null,"purposes":["comms"],"wikipedia_slug":null,"has_3d_model":false,"image_url":null,"decayed_at":null,"tle_current":{"epoch":"2026-09-20T06:13:29.442720Z","epoch_age_seconds":138415,"freshness":"FRESH","line1":"1 56800U 23078AK  26263.25936855 -.00000169  00000+0 -63749-5 0  9992","line2":"2 56800  69.9993 213.9229 0003560 265.9939  94.0813 14.98326200181821","mean_motion":14.983262,"eccentricity":0.000356,"inclination_deg":69.9993,"raan_deg":213.9229,"arg_perigee_deg":265.9939,"mean_anomaly_deg":94.0813,"bstar":-6.3749e-6,"rev_number":18182,"period_min":96.107242868742,"perigee_km":569.59336930318,"apogee_km":574.5419150084,"semimajor_km":6950.2046421558,"source":"CELESTRAK","updated_at":"2026-09-21T09:00:33.510151Z"}}}